Tracking 18945 objects as of 20-Jan-2018
HD Live streaming from Space Station
objects crossing your sky now

GOES 4 AKM

Track GOES 4 AKM now!


NORAD ID: 11970
Int'l Code: 1980-074C
Perigee: 33,779.5 km
Apogee: 50,278.8 km
Inclination: 22.9 °
Period: 1,766.2 minutes
Semi major axis: 48400 km
RCS: 0.003 m2 (small)
Launch date: September 9, 1980
Source: United States (US)
Launch site: AIR FORCE EASTERN TEST RANGE (AFETR)

Note: This is a ROCKET BODY
aabbcc
Your satellite tracking list
Your tracking list is empty




NASA's NSSDC Master Catalog

Two Line Element Set (TLE):
1 11970U 80074C   18015.35349822 -.00000231 +00000-0 +00000-0 0  9995
2 11970 022.8922 340.2537 1704471 195.8378 223.7609 00.81532983013455
Source of the keplerian elements: AFSPC